Weather in Kuterem

Russia / Republic of Bashkortostan     55°59′33″N   54°31′19″E
temp.,
°C
wind,
m/s
gust,
m/s
humid.,
%
clouds,
%
prec.,
mm/h
press.,
hPa
HPBL,
m
23 may, mon
mon2323:00+2wsw228538 0.8 99915
02:00+1sw229032 0.0 99922
05:000sw22905 0.0 99912
08:00+4wnw117693 0.0 998250
11:00+7ssw2365100 0.0 9981019
14:00+9sw3462100 0.1 9981417
17:00+9wsw4663100 0.2 9991325
20:00+7sw3673100 0.0 1001244
24 may, tue
tue2423:00+5ssw357898 0.0 100297
02:00+3s228870 0.0 100325
05:00+2s339250 0.0 100435
08:00+6ssw3577100 0.0 1005313
11:00+9sw465855 0.0 10061536
14:00+11ssw455395 0.1 10071685
17:00+12sse555694 0.1 10071360
20:00+11se3471100 0.1 100799
25 may, wed
wed2523:00+7se3386100 0.1 100845
02:00+6se228794 0.0 100810
05:00+5ese1188100 0.0 100810
08:00+9sse117747 0.0 1008202
11:00+13sse2263100 0.0 1007925
14:00+15ssw2351100 0.1 10071753
17:00+11w6778100 0.4 1007387
20:00+8wnw4790100 0.2 1009334
26 may, thu
thu2623:00+5w359217 0.2 100990
02:00+5w358187 0.0 100990
05:00+5w488879 0.0 1009257
08:00+6w57765 0.0 1009386
11:00+9wsw7865100 0.1 10091503
14:00+7w8106665 0.1 10101354
17:00+8wsw6968100 0.2 10101488
20:00+8sw487195 0.0 1009908
27 may, fri
fri2723:00+6ssw5118992 0.1 1009315
02:00+5s499291 0.6 1007370
05:00+6s6138471 0.6 1005558
08:00+6s51296100 0.9 1004671
11:00+10ssw6990100 1.3 1003692
14:00+9sse61297100 2.8 1003624
17:00+11s71592100 5.2 10011138
20:00+11ssw71393100 0.5 1002664